COSMOS 1275 DEB

Satellite information

Favourite Embed

Satellite Type and Status

DEBRISIN ORBIT

Key statistics

Satellite COSMOS 1275 DEB at a glance.

Uptime

16263

Days in orbit

Revolutions

≈ 14.2

Per day

Orbit

LEO

Low Earth Orbit

Inclination

82.8

Latest

Satellite identification and parameters

Extended collection of information and parameters for COSMOS 1275 DEB.

Object identification

Identified? True

Debris? True

Object name: COSMOS 1275 DEB

International designator: 1981-053JC

Object number (NORAD): 14407

Object ID (CCSDS): 14407

Country: COMMONWEALTH OF INDEPENDENT STATES (CIS)

Current information (Y/N): Y

RCS size: SMALL

Orbital parameters

Period: 101.285 minutes

Inclination: 82.7665 deg

SMA: 7197.656 km

Apoapsis: 850.665 km

Periapsis: 788.377 km

RAAN: 42.4048 deg

Eccentricy: 0.00432697

Argument of periapsis: 100.7356 deg

Mean anomaly: 259.8701 deg

Mean motion: 14.21726678 rev/day

Mean motion (dot): 0.00003767 rev/day2

B* drag term: 0.0016907338 1/REarth

Two-line elements (TLE)

Creation date: Dec. 12, 2025, 10:14 a.m.

Reference frame: TEME

Reference center: EARTH

Epoch: Dec. 12, 2025, 3:22 a.m. UTC

TLE line 0: 0 COSMOS 1275 DEB

TLE line 1: 1 14407U 81053JC 25346.14035966 .00003767 00000-0 16907-2 0 9995

TLE line 2: 2 14407 82.7665 42.4048 0043270 100.7356 259.8701 14.21726678195339

Live tracking on map

Real-time ground track for satellite COSMOS 1275 DEB.

In-orbit conjunctions

A list of the most updated potential collisions computed for object COSMOS 1275 DEB.

Target Orbit TCA Probability of collision Miss distance Type
FENGYUN 1C DEB SSO 2025-08-29 08:50:17 0.0001364197 82.0 (m) DEBRIS
IRIDIUM 33 DEB LEO 2024-11-14 02:28:57 0.0001572974 688.0 (m) DEBRIS

Associated space launch

Navigation satellite providing location information for the Tsiklon-B navigation system

COSMOS 1275 DEB was lifted into orbit during the mission ‘Kosmos-3M | Parus 27’, on board a Kosmos-3M space rocket.

The launch took place on June 4, 1981, 3:41 p.m. from 132/2.

For more information about the launch, click the button.

Launch to space Kosmos-3M | Parus 27
Kosmos-3M | Parus 27

Agency: N/A

Status: Launch Successful

Launch date: June 4, 1981, 3:41 p.m. UTC

Rocket: Kosmos-3M

Launch pad: 132/2

Location: Plesetsk Cosmodrome, Russian Federation

...

Latest news about this satellite

There are no fresh news available about this satellite. Check back as we update our databases every day.


Newsletter sign-up

Weekly statistics, charts and insights to help you stay on top of the space industry.